Location: Melara
(45.0500°N, 11.1833°E)
Time: 19:18:33
(UTC+00:00)

ITAMSAT 1 - Visible Passes

Search period start: 26 May 2024 00:00
Search period end: 05 June 2024 00:00
Orbit: 782 x 796 km, 98.8° (Epoch: 25 May)

Date Brightness Start Highest point End Pass type
(mag) Time Alt. Az. Time Alt. Az. Time Alt. Az.
26 May 8.8 20:15:28 10° SSW 20:20:21 41° W 20:25:16 10° NNW visible
27 May 7.8 19:45:11 10° S 19:50:22 76° WSW 19:55:35 10° NNW visible
28 May 9.9 20:56:44 10° SW 21:00:21 19° W 21:03:57 10° NW visible
29 May 9.1 20:25:29 10° SSW 20:30:10 34° W 20:34:53 10° NNW visible
30 May 8.1 19:55:01 10° S 20:00:08 63° WSW 20:05:18 10° NNW visible
31 May 7.7 19:25:05 10° SSE 19:30:14 72° ENE 19:35:25 10° N visible
31 May 10.1 21:07:12 10° SW 21:10:12 15° W 21:13:13 10° NW visible
01 Jun 9.4 20:35:34 10° SSW 20:40:00 28° W 20:44:26 10° NW visible
02 Jun 8.4 20:04:53 10° S 20:09:55 52° W 20:14:59 10° NNW visible
03 Jun 7.7 19:34:47 10° SSE 19:39:58 87° ENE 19:45:11 10° NNW visible
03 Jun 10.2 21:17:56 10° WSW 21:20:05 12° W 21:22:14 10° WNW visible
04 Jun 9.6 20:45:43 10° SW 20:49:48 23° W 20:53:55 10° NW visible
